FW8165 Weather Reports


time (UTC)temp
C
wind
direction
speed
KPH
gust
KPH
rain 1hr
cm
rain 24hr
cm
rain mn
cm
humidity
%
barometer
mb
20260509161823 25 258 0.0 0.0 0.00 0.00 0.00 76 1013.2
20260509161319 25 228 6.4 6.4 0.00 0.00 0.00 76 1012.9
20260509160815 25 198 3.2 3.2 0.00 0.00 0.00 77 1012.9
20260509160311 25 266 3.2 3.2 0.00 0.00 0.00 78 1012.9
20260509155806 25 211 1.6 1.6 0.00 0.00 0.00 76 1012.9
20260509155306 25 294 4.8 4.8 0.00 0.00 0.00 78 1012.9
20260509154759 25 192 0.0 0.0 0.00 0.00 0.00 79 1012.9
20260509154256 25 240 0.0 0.0 0.00 0.00 0.00 80 1013.2
20260509153753 24 198 0.0 0.0 0.00 0.00 0.00 82 1013.2
20260509153249 23 300 6.4 6.4 0.00 0.00 0.00 85 1013.2
20260509152746 23 196 4.8 4.8 0.00 0.00 0.00 86 1013.2
20260509152242 23 252 4.8 4.8 0.00 0.00 0.00 86 1013.2
20260509151739 23 218 0.0 0.0 0.00 0.00 0.00 87 1013.2
20260509151236 23 144 0.0 0.0 0.00 0.00 0.00 88 1013.5
20260509150734 23 207 0.0 0.0 0.00 0.00 0.00 88 1013.5
20260509150233 23 276 0.0 0.0 0.00 0.00 0.00 89 1013.5
20260509145729 23 229 0.0 0.0 0.00 0.00 0.00 88 1013.5
20260509145228 23 266 0.0 0.0 0.00 0.00 0.00 89 1013.5
20260509144725 23 246 0.0 0.0 0.00 0.00 0.00 89 1013.5
20260509144222 22 217 0.0 0.0 0.00 0.00 0.00 89 1013.5
20260509143720 23 174 0.0 0.0 0.00 0.00 0.00 88 1013.5
20260509143217 23 298 0.0 0.0 0.00 0.00 0.00 88 1013.5
20260509142712 23 180 0.0 0.0 0.00 0.00 0.00 87 1013.2
20260509142209 23 244 0.0 0.0 0.00 0.00 0.00 87 1013.2
20260509141705 23 255 0.0 0.0 0.00 0.00 0.00 86 1013.2
20260509141202 22 252 0.0 0.0 0.00 0.00 0.00 86 1013.2
20260509140658 22 226 0.0 0.0 0.00 0.00 0.00 86 1013.2
20260509140156 22 102 0.0 0.0 0.00 0.00 0.00 87 1013.2
20260509135653 22 156 0.0 0.0 0.00 0.00 0.00 87 1013.2
20260509135151 22 133 0.0 0.0 0.00 0.00 0.00 87 1013.2
20260509134647 22 134 0.0 0.0 0.00 0.00 0.00 87 1013.2
20260509134145 22 186 0.0 0.0 0.00 0.00 0.00 87 1013.2
20260509133642 22 144 0.0 0.0 0.00 0.00 0.00 87 1013.2
20260509133139 22 159 0.0 0.0 0.00 0.00 0.00 87 1013.2
20260509132637 22 168 0.0 0.0 0.00 0.00 0.00 88 1013.5
20260509132136 22 176 0.0 0.0 0.00 0.00 0.00 87 1013.5
20260509131631 22 214 0.0 0.0 0.00 0.00 0.00 87 1013.5
20260509131129 22 186 0.0 0.0 0.00 0.00 0.00 87 1013.5
20260509130624 22 234 0.0 0.0 0.00 0.00 0.00 88 1013.5
20260509130121 21 223 0.0 0.0 0.00 0.00 0.00 88 1013.5
20260509125617 21 234 0.0 0.0 0.00 0.00 0.00 88 1013.5
20260509125114 21 233 0.0 0.0 0.00 0.00 0.00 89 1013.5
20260509124611 21 262 0.0 0.0 0.00 0.00 0.00 89 1013.5
20260509124108 21 287 0.0 0.0 0.00 0.00 0.00 90 1013.5
20260509123606 21 270 0.0 0.0 0.00 0.00 0.00 90 1013.5
20260509123102 21 276 0.0 0.0 0.00 0.00 0.00 91 1013.5
20260509122558 20 313 0.0 0.0 0.00 0.00 0.00 91 1013.5
20260509122056 20 335 0.0 0.0 0.00 0.00 0.00 92 1013.5
20260509121552 20 306 0.0 0.0 0.00 0.00 0.00 93 1013.2
20260509121050 20 288 0.0 0.0 0.00 0.00 0.00 93 1013.2
20260509120548 19 282 0.0 0.0 0.00 0.00 0.00 95 1013.2
20260509120046 18 12 0.0 0.0 0.00 0.00 0.00 96 1013.2
20260509115542 18 329 0.0 0.0 0.00 0.00 0.00 98 1013.2
20260509115040 18 305 0.0 0.0 0.00 0.00 0.00 98 1013.2
20260509114538 18 288 0.0 0.0 0.00 0.00 0.00 98 1013.2
20260509114037 17 271 0.0 0.0 0.00 0.00 0.00 98 1013.2
20260509113535 17 267 0.0 0.0 0.00 0.00 0.00 98 1013.2
20260509113032 17 282 0.0 0.0 0.00 0.00 0.00 98 1013.2
20260509112528 17 286 0.0 0.0 0.00 0.00 0.00 98 1013.2
20260509112025 17 216 0.0 0.0 0.00 0.00 0.00 98 1013.2
20260509111523 17 216 0.0 0.0 0.00 0.00 0.00 98 1013.2
20260509111020 17 228 0.0 0.0 0.00 0.00 0.00 98 1013.2
20260509110516 17 238 0.0 0.0 0.00 0.00 0.00 98 1013.2
20260509110014 17 238 0.0 0.0 0.00 0.00 0.00 98 1012.5
20260509105512 17 238 0.0 0.0 0.00 0.00 0.00 98 1012.5
20260509105009 17 234 0.0 0.0 0.00 0.00 0.00 98 1012.5
20260509104506 17 234 0.0 0.0 0.00 0.00 0.00 98 1012.5
20260509104003 17 282 0.0 0.0 0.00 0.00 0.00 98 1012.5
20260509103501 17 267 0.0 0.0 0.00 0.00 0.00 98 1012.5
20260509102958 17 265 0.0 0.0 0.00 0.00 0.00 98 1012.5
20260509102456 17 243 0.0 0.0 0.00 0.00 0.00 97 1012.5
20260509101952 17 273 0.0 0.0 0.00 0.00 0.00 97 1012.5
20260509101448 17 244 0.0 0.0 0.00 0.00 0.00 97 1012.2
20260509100946 17 244 0.0 0.0 0.00 0.00 0.00 97 1012.2
20260509100443 17 264 0.0 0.0 0.00 0.00 0.00 97 1012.2
20260509095939 17 202 0.0 0.0 0.00 0.00 0.00 97 1012.5
20260509095436 17 202 0.0 0.0 0.00 0.00 0.00 97 1012.5
20260509094934 17 258 0.0 0.0 0.00 0.00 0.00 97 1012.5
20260509094430 17 282 0.0 0.0 0.00 0.00 0.00 96 1012.9
20260509093927 17 294 0.0 0.0 0.00 0.00 0.00 96 1012.9
20260509093425 17 228 0.0 0.0 0.00 0.00 0.00 96 1012.9
20260509092923 17 228 0.0 0.0 0.00 0.00 0.00 96 1012.9
20260509092420 17 264 0.0 0.0 0.00 0.00 0.00 96 1012.9
20260509091919 17 227 0.0 0.0 0.00 0.00 0.00 96 1012.9
20260509091415 17 119 0.0 0.0 0.00 0.00 0.00 96 1012.9
20260509090912 17 222 0.0 0.0 0.00 0.00 0.00 96 1012.9
20260509090409 17 222 0.0 0.0 0.00 0.00 0.00 96 1012.9
20260509085907 17 243 0.0 0.0 0.00 0.00 0.00 96 1012.5
20260509085404 17 252 0.0 0.0 0.00 0.00 0.00 95 1012.5
20260509084900 17 242 0.0 0.0 0.00 0.00 0.00 95 1012.5
20260509084357 17 198 0.0 0.0 0.00 0.00 0.00 95 1012.5
20260509083855 17 239 0.0 0.0 0.00 0.00 0.00 95 1012.5
20260509083352 18 240 0.0 0.0 0.00 0.00 0.00 95 1012.5
20260509082848 17 190 0.0 0.0 0.00 0.00 0.00 95 1012.9
20260509082345 17 163 0.0 0.0 0.00 0.00 0.00 95 1012.9
20260509081842 17 214 0.0 0.0 0.00 0.00 0.00 95 1012.9
20260509081339 17 282 0.0 0.0 0.00 0.00 0.00 95 1012.9
20260509080837 18 292 0.0 0.0 0.00 0.00 0.00 95 1012.9
20260509080335 17 306 0.0 0.0 0.00 0.00 0.00 94 1012.9
20260509075833 17 132 0.0 0.0 0.00 0.00 0.00 94 1013.2
20260509075330 18 120 0.0 0.0 0.00 0.00 0.00 94 1013.2
20260509074827 18 258 0.0 0.0 0.00 0.00 0.00 94 1013.2
20260509074325 18 204 0.0 0.0 0.00 0.00 0.00 94 1013.2
20260509073821 18 203 0.0 0.0 0.00 0.00 0.00 93 1013.2
20260509073317 18 210 0.0 0.0 0.00 0.00 0.00 93 1013.2
20260509072814 18 254 0.0 0.0 0.00 0.00 0.00 93 1012.9
20260509072310 18 261 0.0 0.0 0.00 0.00 0.00 93 1012.9
20260509071807 18 286 0.0 0.0 0.00 0.00 0.00 93 1012.9
20260509071304 18 339 0.0 0.0 0.00 0.00 0.00 92 1012.9
20260509070801 18 282 0.0 0.0 0.00 0.00 0.00 92 1012.9
20260509070258 18 292 0.0 0.0 0.00 0.00 0.00 93 1012.9
20260509065754 18 300 0.0 0.0 0.00 0.00 0.00 92 1013.2
20260509065250 18 282 0.0 0.0 0.00 0.00 0.00 92 1013.2
20260509064747 18 282 0.0 0.0 0.00 0.00 0.00 92 1013.2
20260509064244 18 252 0.0 0.0 0.00 0.00 0.00 91 1013.2
20260509063742 18 293 0.0 0.0 0.00 0.00 0.00 91 1013.2
20260509063238 18 159 0.0 0.0 0.00 0.00 0.00 91 1013.2
20260509062735 18 138 0.0 0.0 0.00 0.00 0.00 91 1014.2
20260509062232 18 108 0.0 0.0 0.00 0.00 0.00 90 1014.2
20260509061729 18 303 3.2 3.2 0.00 0.00 0.00 90 1014.2
20260509061227 18 260 0.0 0.0 0.00 0.00 0.00 90 1013.9
20260509060724 18 108 0.0 0.0 0.00 0.00 0.00 90 1013.9
20260509060220 18 258 0.0 0.0 0.00 0.00 0.00 90 1013.9
20260509055716 18 180 0.0 0.0 0.00 0.00 0.00 89 1014.2
20260509055212 18 180 0.0 0.0 0.00 0.00 0.00 89 1014.2
20260509054709 18 354 0.0 0.0 0.00 0.00 0.00 89 1014.2
20260509054206 18 303 0.0 0.0 0.00 0.00 0.00 89 1013.9
20260509053705 18 242 0.0 0.0 0.00 0.00 0.00 89 1013.9
20260509053201 18 222 0.0 0.0 0.00 0.00 0.00 89 1013.9
20260509052659 18 192 0.0 0.0 0.00 0.00 0.00 89 1014.2
20260509052156 18 132 0.0 0.0 0.00 0.00 0.00 89 1014.2
20260509051654 18 138 0.0 0.0 0.00 0.00 0.00 89 1014.2
20260509051151 18 196 0.0 0.0 0.00 0.00 0.00 89 1014.9
20260509050648 18 195 0.0 0.0 0.00 0.00 0.00 89 1014.9
20260509050144 18 186 0.0 0.0 0.00 0.00 0.00 89 1014.9
20260509045642 18 221 0.0 0.0 0.00 0.00 0.00 88 1015.6
20260509045139 18 288 0.0 0.0 0.00 0.00 0.00 88 1015.6
20260509044636 18 288 0.0 0.0 0.00 0.00 0.00 88 1015.6
20260509044133 18 297 0.0 0.0 0.00 0.00 0.00 88 1015.2
20260509043630 18 330 0.0 0.0 0.00 0.00 0.00 87 1015.2
20260509043125 18 276 0.0 0.0 0.00 0.00 0.00 88 1015.2
20260509042622 18 258 0.0 0.0 0.00 0.00 0.00 88 1014.5
20260509042118 18 292 0.0 0.0 0.00 0.00 0.00 88 1014.5
20260509041615 18 150 0.0 0.0 0.00 0.00 0.00 89 1014.5
20260509041113 18 171 0.0 0.0 0.00 0.00 0.00 89 1015.9
20260509040611 18 207 0.0 0.0 0.00 0.00 0.00 88 1015.9
20260509040108 18 207 0.0 0.0 0.00 0.00 0.00 88 1015.9
20260509035604 18 234 0.0 0.0 0.00 0.00 0.00 87 1015.9
20260509035101 18 246 0.0 0.0 0.00 0.00 0.00 87 1015.9
20260509034559 18 266 0.0 0.0 0.00 0.00 0.00 87 1015.9
20260509034055 18 197 0.0 0.0 0.00 0.00 0.00 87 1015.9
20260509033553 18 190 0.0 0.0 0.00 0.00 0.00 86 1015.9
20260509033050 18 210 0.0 0.0 0.00 0.00 0.00 86 1015.9
20260509032547 18 210 0.0 0.0 0.00 0.00 0.00 86 1015.9
20260509032044 18 198 0.0 0.0 0.00 0.00 0.00 86 1015.9
20260509031542 18 156 0.0 0.0 0.00 0.00 0.00 86 1016.2
20260509031038 18 222 0.0 0.0 0.00 0.00 0.00 85 1016.2
20260509030537 18 222 0.0 0.0 0.00 0.00 0.00 85 1016.2
20260509030033 18 221 0.0 0.0 0.00 0.00 0.00 85 1016.2
20260509025529 18 221 0.0 0.0 0.00 0.00 0.00 85 1016.2
20260509025025 18 222 0.0 0.0 0.00 0.00 0.00 85 1016.2
20260509024521 18 234 0.0 0.0 0.00 0.00 0.00 84 1015.6
20260509024017 18 234 0.0 0.0 0.00 0.00 0.00 84 1015.6
20260509023515 18 216 0.0 0.0 0.00 0.00 0.00 84 1015.6
20260509023012 18 216 0.0 0.0 0.00 0.00 0.00 84 1015.6
20260509022508 18 236 0.0 0.0 0.00 0.00 0.00 83 1015.6
20260509022006 18 319 0.0 0.0 0.00 0.00 0.00 84 1015.6
20260509021503 18 98 0.0 0.0 0.00 0.00 0.00 84 1015.6
20260509021000 18 162 0.0 0.0 0.00 0.00 0.00 83 1015.6
20260509020458 18 198 0.0 0.0 0.00 0.00 0.00 83 1015.6
20260509015955 18 176 0.0 0.0 0.00 0.00 0.00 82 1015.9
20260509015454 18 210 0.0 0.0 0.00 0.00 0.00 81 1015.9
20260509014950 18 213 0.0 0.0 0.00 0.00 0.00 81 1015.9
20260509014447 19 227 0.0 0.0 0.00 0.00 0.00 81 1015.6
20260509013943 19 252 0.0 0.0 0.00 0.00 0.00 81 1015.6
20260509013440 19 288 0.0 0.0 0.00 0.00 0.00 81 1015.6
20260509012936 19 181 0.0 0.0 0.00 0.00 0.00 81 1015.6
20260509012432 18 162 0.0 0.0 0.00 0.00 0.00 81 1015.6
20260509011930 19 162 0.0 0.0 0.00 0.00 0.00 80 1015.6
20260509011427 19 126 0.0 0.0 0.00 0.00 0.00 80 1015.2
20260509010925 19 180 0.0 0.0 0.00 0.00 0.00 80 1015.2
20260509010422 19 162 0.0 0.0 0.00 0.00 0.00 81 1015.2
20260509005919 19 120 0.0 0.0 0.00 0.00 0.00 80 1015.2
20260509005417 19 144 0.0 0.0 0.00 0.00 0.00 81 1015.2
20260509004917 19 180 0.0 0.0 0.00 0.00 0.00 80 1015.2
20260509004414 19 171 0.0 0.0 0.00 0.00 0.00 80 1015.2
20260509003912 19 157 0.0 0.0 0.00 0.00 0.00 80 1015.2
20260509003409 19 180 0.0 0.0 0.00 0.00 0.00 80 1015.2
20260509002906 19 198 0.0 0.0 0.00 0.00 0.00 80 1014.9
20260509002404 19 150 0.0 0.0 0.00 0.00 0.00 79 1014.9
20260509001901 19 102 0.0 0.0 0.00 0.00 0.00 78 1014.9
20260509001356 19 134 0.0 0.0 0.00 0.00 0.00 78 1014.9
20260509000854 19 132 0.0 0.0 0.00 0.00 0.00 78 1014.9
20260509000352 19 108 0.0 0.0 0.00 0.00 0.00 77 1014.9
20260508235848 19 108 0.0 0.0 0.00 0.00 0.00 76 1014.9
20260508235345 19 170 0.0 0.0 0.00 0.00 0.00 76 1014.9
20260508234842 19 157 0.0 0.0 0.00 0.00 0.00 75 1014.9
20260508234338 19 156 0.0 0.0 0.00 0.00 0.00 75 1014.5
20260508233837 19 135 0.0 0.0 0.00 0.00 0.00 75 1014.5
20260508233336 20 126 0.0 0.0 0.00 0.00 0.00 74 1014.5
20260508232832 20 144 0.0 0.0 0.00 0.00 0.00 73 1014.9
20260508232329 20 168 0.0 0.0 0.00 0.00 0.00 74 1014.9
20260508231827 20 147 0.0 0.0 0.00 0.00 0.00 74 1014.9
20260508231324 20 120 0.0 0.0 0.00 0.00 0.00 73 1014.9
20260508230820 20 102 0.0 0.0 0.00 0.00 0.00 72 1014.9
20260508230316 20 156 0.0 0.0 0.00 0.00 0.00 73 1014.9
20260508225814 20 102 0.0 0.0 0.00 0.00 0.00 71 1014.5
20260508225310 20 132 0.0 0.0 0.00 0.00 0.00 72 1014.5
20260508224809 20 152 0.0 0.0 0.00 0.00 0.00 74 1014.5
20260508224306 20 169 0.0 0.0 0.00 0.00 0.00 74 1014.9
20260508223803 20 144 0.0 0.0 0.00 0.00 0.00 73 1014.9
20260508223301 20 90 0.0 0.0 0.00 0.00 0.00 72 1014.9
20260508222758 20 170 0.0 0.0 0.00 0.00 0.00 73 1014.9
20260508222255 20 66 0.0 0.0 0.00 0.00 0.00 73 1014.9
20260508221752 20 157 0.0 0.0 0.00 0.00 0.00 72 1014.9
20260508221247 20 138 0.0 0.0 0.00 0.00 0.00 72 1014.9
20260508220743 20 124 6.4 6.4 0.00 0.00 0.00 72 1014.9
20260508220240 20 114 0.0 0.0 0.00 0.00 0.00 72 1014.9
20260508215736 20 165 0.0 0.0 0.00 0.00 0.00 72 1014.5
20260508215233 20 266 0.0 0.0 0.00 0.00 0.00 71 1014.5
20260508214731 20 124 3.2 3.2 0.00 0.00 0.00 72 1014.5
20260508214228 20 96 0.0 0.0 0.00 0.00 0.00 71 1014.5
20260508213724 21 78 0.0 0.0 0.00 0.00 0.00 70 1014.5
20260508213221 21 96 0.0 0.0 0.00 0.00 0.00 68 1014.5
20260508212718 21 138 3.2 3.2 0.00 0.00 0.00 69 1015.2
20260508212214 21 120 3.2 3.2 0.00 0.00 0.00 67 1015.2
20260508211709 21 182 0.0 0.0 0.00 0.00 0.00 68 1015.2
20260508211205 21 144 0.0 0.0 0.00 0.00 0.00 68 1014.9
20260508210703 21 159 3.2 3.2 0.00 0.00 0.00 66 1014.9
20260508210200 21 72 0.0 0.0 0.00 0.00 0.00 69 1014.9
20260508205657 21 72 1.6 1.6 0.00 0.00 0.00 69 1014.5
20260508205153 21 72 0.0 0.0 0.00 0.00 0.00 69 1014.5
20260508204649 21 124 0.0 0.0 0.00 0.00 0.00 69 1014.5
20260508204145 20 165 0.0 0.0 0.00 0.00 0.00 69 1014.5
20260508203642 21 96 4.8 4.8 0.00 0.00 0.00 68 1014.5
20260508203138 21 131 1.6 1.6 0.00 0.00 0.00 69 1014.5
20260508202634 21 198 3.2 3.2 0.00 0.00 0.00 67 1014.5
20260508202132 21 84 0.0 0.0 0.00 0.00 0.00 67 1014.5
20260508201628 22 139 3.2 3.2 0.00 0.00 0.00 66 1014.9
20260508201125 22 139 3.2 3.2 0.00 0.00 0.00 66 1014.9
20260508200622 22 162 3.2 3.2 0.00 0.00 0.00 67 1014.9
20260508200118 22 107 1.6 1.6 0.00 0.00 0.00 66 1014.9
20260508195615 22 134 4.8 4.8 0.00 0.00 0.00 65 1015.2
20260508195111 22 161 1.6 1.6 0.00 0.00 0.00 64 1015.2
20260508194608 22 85 3.2 3.2 0.00 0.00 0.00 62 1015.2
20260508194105 22 114 1.6 1.6 0.00 0.00 0.00 63 1015.2
20260508193601 23 147 3.2 3.2 0.00 0.00 0.00 60 1015.2
20260508193058 23 134 3.2 3.2 0.00 0.00 0.00 59 1015.6
20260508192555 23 125 3.2 3.2 0.00 0.00 0.00 61 1015.6
20260508192052 23 287 0.0 0.0 0.00 0.00 0.00 61 1015.6
20260508191548 23 156 3.2 3.2 0.00 0.00 0.00 61 1015.2
20260508191045 22 120 0.0 0.0 0.00 0.00 0.00 61 1015.2
20260508190543 23 102 3.2 3.2 0.00 0.00 0.00 62 1015.2
20260508190039 23 184 3.2 3.2 0.00 0.00 0.00 58 1015.6
20260508185536 23 165 4.8 4.8 0.00 0.00 0.00 57 1015.6
20260508185034 24 13 3.2 3.2 0.00 0.00 0.00 60 1015.6
20260508184531 25 47 4.8 4.8 0.00 0.00 0.00 56 1015.2
20260508184028 24 96 3.2 3.2 0.00 0.00 0.00 58 1015.2
20260508183524 23 210 4.8 4.8 0.00 0.00 0.00 57 1015.2
20260508183020 25 138 4.8 4.8 0.00 0.00 0.00 53 1015.6
20260508182517 25 108 3.2 3.2 0.00 0.00 0.00 55 1015.6
20260508182013 25 132 3.2 3.2 0.00 0.00 0.00 57 1015.6
20260508181509 25 60 4.8 6.4 0.00 0.00 0.00 52 1015.9
20260508181007 25 301 3.2 3.2 0.00 0.00 0.00 49 1015.9
20260508180503 25 198 3.2 3.2 0.00 0.00 0.00 48 1015.9
20260508175959 25 174 0.0 0.0 0.00 0.00 0.00 48 1015.9
20260508175456 25 358 0.0 0.0 0.00 0.00 0.00 46 1015.9
20260508174954 25 174 3.2 3.2 0.00 0.00 0.00 47 1015.9
20260508174451 25 238 6.4 6.4 0.00 0.00 0.00 50 1015.9
20260508173948 25 114 3.2 3.2 0.00 0.00 0.00 48 1015.9
20260508173445 25 188 3.2 3.2 0.00 0.00 0.00 46 1015.9
20260508172940 24 138 3.2 3.2 0.00 0.00 0.00 52 1016.2
20260508172438 25 58 3.2 3.2 0.00 0.00 0.00 49 1016.2
20260508171934 24 89 4.8 6.4 0.00 0.00 0.00 48 1016.2
20260508171431 24 38 6.4 6.4 0.00 0.00 0.00 49 1016.6
20260508170928 23 84 3.2 3.2 0.00 0.00 0.00 50 1016.6
20260508170425 23 294 6.4 6.4 0.00 0.00 0.00 50 1016.6
20260508165922 23 258 4.8 4.8 0.00 0.00 0.00 51 1016.6
20260508165420 23 156 3.2 3.2 0.00 0.00 0.00 49 1016.6
20260508164915 23 49 3.2 3.2 0.00 0.00 0.00 50 1016.6
20260508164413 23 174 0.0 0.0 0.00 0.00 0.00 51 1016.6
20260508163909 23 187 1.6 1.6 0.00 0.00 0.00 50 1016.6
20260508163408 23 323 0.0 0.0 0.00 0.00 0.00 50 1016.6
20260508162902 23 236 1.6 1.6 0.00 0.00 0.00 52 1016.9
20260508162400 22 354 3.2 3.2 0.00 0.00 0.00 50 1016.9